Time,TemperatureF,DewpointF,PressureIn,WindDirection,WindDirectionDegrees,WindSpeedMPH,WindSpeedGustMPH,Humidity,HourlyPrecipIn,Conditions,Clouds,dailyrainin,SoftwareType,DateUTC
2013-10-08 00:01:00,55.4,53.1,30.05,North,355,0.0,2.0,92,0.00,,,0.00,VWS V14.00,2013-10-08 04:01:00,
2013-10-08 00:06:00,55.3,52.7,30.06,NNW,340,0.0,2.0,91,0.00,,,0.00,VWS V14.00,2013-10-08 04:06:00,
2013-10-08 00:11:00,55.4,53.1,30.06,ENE,61,0.0,3.0,92,0.00,,,0.00,VWS V14.00,2013-10-08 04:11:00,
2013-10-08 00:16:00,55.4,52.8,30.06,NE,51,1.0,3.0,91,0.00,,,0.00,VWS V14.00,2013-10-08 04:16:00,
2013-10-08 00:21:00,55.4,53.1,30.05,NE,51,0.0,3.0,92,0.00,,,0.00,VWS V14.00,2013-10-08 04:21:00,
2013-10-08 00:26:00,55.3,52.7,30.05,NE,51,0.0,3.0,91,0.00,,,0.00,VWS V14.00,2013-10-08 04:26:00,
2013-10-08 00:31:00,55.3,52.7,30.05,NNE,24,0.0,0.0,91,0.00,,,0.00,VWS V14.00,2013-10-08 04:31:00,
2013-10-08 00:36:00,55.3,53.0,30.05,NE,39,0.0,0.0,92,0.00,,,0.00,VWS V14.00,2013-10-08 04:36:00,
2013-10-08 00:41:00,55.3,52.7,30.05,NE,39,0.0,0.0,91,0.00,,,0.00,VWS V14.00,2013-10-08 04:41:00,
2013-10-08 00:46:00,55.2,52.3,30.05,NE,39,0.0,0.0,90,0.00,,,0.00,VWS V14.00,2013-10-08 04:46:00,
2013-10-08 00:51:00,55.2,52.3,30.06,NE,39,0.0,0.0,90,0.00,,,0.00,VWS V14.00,2013-10-08 04:51:00,
2013-10-08 00:56:00,55.2,52.3,30.06,NE,39,0.0,0.0,90,0.00,,,0.00,VWS V14.00,2013-10-08 04:56:00,
2013-10-08 01:01:00,55.1,52.2,30.06,NE,39,0.0,0.0,90,0.00,,,0.00,VWS V14.00,2013-10-08 05:01:00,
2013-10-08 01:06:00,55.1,52.5,30.06,NE,39,0.0,0.0,91,0.00,,,0.00,VWS V14.00,2013-10-08 05:06:00,
2013-10-08 01:11:00,55.2,52.9,30.06,NE,39,0.0,0.0,92,0.00,,,0.00,VWS V14.00,2013-10-08 05:11:00,
2013-10-08 01:16:00,55.1,52.5,30.06,NE,39,1.0,2.0,91,0.00,,,0.00,VWS V14.00,2013-10-08 05:16:00,
2013-10-08 01:21:00,55.0,52.1,30.06,NE,39,0.0,2.0,90,0.00,,,0.00,VWS V14.00,2013-10-08 05:21:00,
2013-10-08 01:26:00,54.9,52.3,30.06,NNW,333,0.0,2.0,91,0.00,,,0.00,VWS V14.00,2013-10-08 05:26:00,
2013-10-08 01:31:00,54.8,52.2,30.07,NNW,333,0.0,0.0,91,0.00,,,0.00,VWS V14.00,2013-10-08 05:31:00,
2013-10-08 01:36:00,54.7,52.4,30.07,NNW,334,1.0,1.0,92,0.00,,,0.00,VWS V14.00,2013-10-08 05:36:00,
2013-10-08 01:41:00,54.6,52.0,30.06,NNW,334,0.0,1.0,91,0.00,,,0.00,VWS V14.00,2013-10-08 05:41:00,
2013-10-08 01:46:00,54.5,51.9,30.06,NNW,333,0.0,1.0,91,0.00,,,0.00,VWS V14.00,2013-10-08 05:46:00,
2013-10-08 01:51:00,54.4,51.8,30.07,NNW,334,0.0,1.0,91,0.00,,,0.00,VWS V14.00,2013-10-08 05:51:00,
2013-10-08 01:56:00,54.2,51.6,30.06,NNW,333,0.0,1.0,91,0.00,,,0.00,VWS V14.00,2013-10-08 05:56:00,
2013-10-08 02:01:00,54.1,51.5,30.07,NNW,340,0.0,1.0,91,0.00,,,0.00,VWS V14.00,2013-10-08 06:01:00,
2013-10-08 02:06:00,54.0,51.7,30.07,NNW,342,0.0,1.0,92,0.00,,,0.00,VWS V14.00,2013-10-08 06:06:00,
2013-10-08 02:11:00,53.9,51.3,30.07,NNW,342,0.0,1.0,91,0.00,,,0.00,VWS V14.00,2013-10-08 06:11:00,
2013-10-08 02:16:00,53.7,51.1,30.07,NNW,342,0.0,1.0,91,0.00,,,0.00,VWS V14.00,2013-10-08 06:16:00,
2013-10-08 02:21:00,53.7,51.1,30.07,NNW,342,0.0,1.0,91,0.00,,,0.00,VWS V14.00,2013-10-08 06:21:00,
2013-10-08 02:26:00,53.7,51.4,30.07,NNE,22,0.0,2.0,92,0.00,,,0.00,VWS V14.00,2013-10-08 06:26:00,
2013-10-08 02:31:00,53.6,51.3,30.08,NNE,23,0.0,0.0,92,0.00,,,0.00,VWS V14.00,2013-10-08 06:31:00,
2013-10-08 02:36:00,53.7,51.4,30.07,NNW,346,0.0,1.0,92,0.00,,,0.00,VWS V14.00,2013-10-08 06:36:00,
2013-10-08 02:41:00,53.6,51.0,30.07,NNW,346,0.0,1.0,91,0.00,,,0.00,VWS V14.00,2013-10-08 06:41:00,
2013-10-08 02:46:00,53.5,50.6,30.08,NNW,346,0.0,1.0,90,0.00,,,0.00,VWS V14.00,2013-10-08 06:46:00,
2013-10-08 02:51:00,53.5,50.6,30.08,North,350,0.0,1.0,90,0.00,,,0.00,VWS V14.00,2013-10-08 06:51:00,
2013-10-08 02:56:00,53.4,50.5,30.08,NW,324,0.0,1.0,90,0.00,,,0.00,VWS V14.00,2013-10-08 06:56:00,
2013-10-08 03:01:00,53.4,50.8,30.08,NW,324,0.0,0.0,91,0.00,,,0.00,VWS V14.00,2013-10-08 07:01:00,
2013-10-08 03:07:00,53.3,50.7,30.08,NW,324,0.0,0.0,91,0.00,,,0.00,VWS V14.00,2013-10-08 07:07:00,
2013-10-08 03:12:00,53.2,50.3,30.08,NW,325,0.0,0.0,90,0.00,,,0.00,VWS V14.00,2013-10-08 07:12:00,
2013-10-08 03:17:00,53.2,50.9,30.08,NNE,32,0.0,1.0,92,0.00,,,0.00,VWS V14.00,2013-10-08 07:17:00,
2013-10-08 03:22:00,53.2,50.9,30.08,NNE,32,0.0,1.0,92,0.00,,,0.00,VWS V14.00,2013-10-08 07:22:00,
2013-10-08 03:27:00,53.1,50.8,30.09,NNE,32,0.0,1.0,92,0.00,,,0.00,VWS V14.00,2013-10-08 07:27:00,
2013-10-08 03:32:00,53.0,50.7,30.09,NNE,32,0.0,0.0,92,0.00,,,0.00,VWS V14.00,2013-10-08 07:32:00,
2013-10-08 03:37:00,52.9,50.6,30.10,NNE,32,0.0,0.0,92,0.00,,,0.00,VWS V14.00,2013-10-08 07:37:00,
2013-10-08 03:42:00,52.8,50.2,30.10,NNE,32,0.0,0.0,91,0.00,,,0.00,VWS V14.00,2013-10-08 07:42:00,
2013-10-08 03:47:00,52.7,50.5,30.10,NNE,32,0.0,0.0,92,0.00,,,0.00,VWS V14.00,2013-10-08 07:47:00,
2013-10-08 03:52:00,52.6,50.3,30.10,NNE,32,0.0,0.0,92,0.00,,,0.00,VWS V14.00,2013-10-08 07:52:00,
2013-10-08 03:57:00,52.6,50.6,30.10,NNE,32,0.0,0.0,93,0.00,,,0.00,VWS V14.00,2013-10-08 07:57:00,
2013-10-08 04:02:00,52.5,50.8,30.11,NNE,32,0.0,0.0,94,0.00,,,0.00,VWS V14.00,2013-10-08 08:02:00,
2013-10-08 04:07:00,52.4,50.7,30.11,NNE,32,0.0,0.0,94,0.00,,,0.00,VWS V14.00,2013-10-08 08:07:00,
2013-10-08 04:12:00,52.3,50.6,30.11,NNE,32,0.0,0.0,94,0.00,,,0.00,VWS V14.00,2013-10-08 08:12:00,
2013-10-08 04:17:00,52.1,50.4,30.12,NNE,32,0.0,0.0,94,0.00,,,0.00,VWS V14.00,2013-10-08 08:17:00,
2013-10-08 04:22:00,52.0,50.3,30.12,NNE,32,0.0,0.0,94,0.00,,,0.00,VWS V14.00,2013-10-08 08:22:00,
2013-10-08 04:27:00,51.9,50.2,30.12,NNE,32,0.0,0.0,94,0.00,,,0.00,VWS V14.00,2013-10-08 08:27:00,
2013-10-08 04:31:00,51.8,50.1,30.12,NNE,32,0.0,0.0,94,0.00,,,0.00,VWS V14.00,2013-10-08 08:31:00,
2013-10-08 04:37:00,51.7,50.0,30.13,NNE,32,0.0,0.0,94,0.00,,,0.00,VWS V14.00,2013-10-08 08:37:00,
2013-10-08 04:42:00,51.5,49.8,30.12,NNE,32,0.0,0.0,94,0.00,,,0.00,VWS V14.00,2013-10-08 08:42:00,
2013-10-08 04:46:00,51.4,49.7,30.12,NNE,32,0.0,0.0,94,0.00,,,0.00,VWS V14.00,2013-10-08 08:46:00,
2013-10-08 04:52:00,51.3,49.6,30.12,NNE,32,0.0,0.0,94,0.00,,,0.00,VWS V14.00,2013-10-08 08:52:00,
2013-10-08 04:57:00,51.2,49.8,30.12,NNE,32,0.0,0.0,95,0.00,,,0.00,VWS V14.00,2013-10-08 08:57:00,
2013-10-08 05:02:00,51.1,49.7,30.12,NNE,32,0.0,0.0,95,0.00,,,0.00,VWS V14.00,2013-10-08 09:02:00,
2013-10-08 05:07:00,51.0,49.6,30.12,NNE,32,0.0,0.0,95,0.00,,,0.00,VWS V14.00,2013-10-08 09:07:00,
2013-10-08 05:12:00,51.0,49.6,30.13,NNE,32,0.0,0.0,95,0.00,,,0.00,VWS V14.00,2013-10-08 09:12:00,
2013-10-08 05:17:00,50.9,49.8,30.13,NNE,32,0.0,0.0,96,0.00,,,0.00,VWS V14.00,2013-10-08 09:17:00,
2013-10-08 05:22:00,50.9,49.8,30.14,NNE,32,0.0,0.0,96,0.00,,,0.00,VWS V14.00,2013-10-08 09:22:00,
2013-10-08 05:27:00,50.8,49.7,30.14,NNE,32,0.0,0.0,96,0.00,,,0.00,VWS V14.00,2013-10-08 09:27:00,
2013-10-08 05:32:00,50.7,49.9,30.14,NNE,32,0.0,0.0,97,0.00,,,0.00,VWS V14.00,2013-10-08 09:32:00,
2013-10-08 05:37:00,50.6,49.5,30.14,NNE,32,0.0,0.0,96,0.00,,,0.00,VWS V14.00,2013-10-08 09:37:00,
2013-10-08 05:42:00,50.6,49.5,30.14,NNE,32,0.0,0.0,96,0.00,,,0.00,VWS V14.00,2013-10-08 09:42:00,
2013-10-08 05:47:00,50.5,49.7,30.14,NNE,32,0.0,0.0,97,0.00,,,0.00,VWS V14.00,2013-10-08 09:47:00,
2013-10-08 05:52:00,50.3,49.5,30.15,NNE,32,0.0,0.0,97,0.00,,,0.00,VWS V14.00,2013-10-08 09:52:00,
2013-10-08 05:57:00,50.2,49.4,30.15,NNE,32,0.0,0.0,97,0.00,,,0.00,VWS V14.00,2013-10-08 09:57:00,
2013-10-08 06:02:00,50.0,49.5,30.16,NNE,32,0.0,0.0,98,0.00,,,0.00,VWS V14.00,2013-10-08 10:02:00,
2013-10-08 06:07:00,49.9,49.1,30.16,NNE,32,0.0,0.0,97,0.00,,,0.00,VWS V14.00,2013-10-08 10:07:00,
2013-10-08 06:12:00,49.7,49.2,30.16,NNE,32,0.0,0.0,98,0.00,,,0.00,VWS V14.00,2013-10-08 10:12:00,
2013-10-08 06:17:00,49.7,49.4,30.16,NNE,32,0.0,0.0,99,0.00,,,0.00,VWS V14.00,2013-10-08 10:17:00,
2013-10-08 06:22:00,49.7,49.2,30.16,NNE,32,0.0,0.0,98,0.00,,,0.00,VWS V14.00,2013-10-08 10:22:00,
2013-10-08 06:27:00,49.7,49.2,30.17,NW,314,0.0,1.0,98,0.00,,,0.00,VWS V14.00,2013-10-08 10:27:00,
2013-10-08 06:32:00,49.7,49.2,30.17,NW,314,0.0,0.0,98,0.00,,,0.00,VWS V14.00,2013-10-08 10:32:00,
2013-10-08 06:37:00,49.7,49.2,30.17,NW,314,0.0,0.0,98,0.00,,,0.00,VWS V14.00,2013-10-08 10:37:00,
2013-10-08 06:42:00,49.6,49.1,30.17,NW,314,0.0,0.0,98,0.00,,,0.00,VWS V14.00,2013-10-08 10:42:00,
2013-10-08 06:46:00,49.6,49.1,30.17,NW,314,0.0,0.0,98,0.00,,,0.00,VWS V14.00,2013-10-08 10:46:00,
2013-10-08 06:51:00,49.5,49.0,30.17,NW,314,0.0,0.0,98,0.00,,,0.00,VWS V14.00,2013-10-08 10:51:00,
2013-10-08 06:56:00,49.4,48.9,30.17,NW,314,0.0,0.0,98,0.00,,,0.00,VWS V14.00,2013-10-08 10:56:00,
2013-10-08 07:01:00,49.3,48.8,30.18,NW,317,0.0,0.0,98,0.00,,,0.00,VWS V14.00,2013-10-08 11:01:00,
2013-10-08 07:06:00,49.2,48.7,30.18,NNE,33,0.0,0.0,98,0.00,,,0.00,VWS V14.00,2013-10-08 11:06:00,
2013-10-08 07:11:00,49.4,49.1,30.18,NNE,33,0.0,0.0,99,0.00,,,0.00,VWS V14.00,2013-10-08 11:11:00,
2013-10-08 07:16:00,49.4,49.1,30.19,NNE,33,0.0,0.0,99,0.00,,,0.00,VWS V14.00,2013-10-08 11:16:00,
2013-10-08 07:21:00,49.5,49.2,30.19,NNE,33,0.0,0.0,99,0.00,,,0.00,VWS V14.00,2013-10-08 11:21:00,
2013-10-08 07:26:00,49.5,49.0,30.19,NNW,333,0.0,1.0,98,0.00,,,0.00,VWS V14.00,2013-10-08 11:26:00,
2013-10-08 07:31:00,49.4,48.9,30.19,NNW,333,0.0,0.0,98,0.00,,,0.00,VWS V14.00,2013-10-08 11:31:00,
2013-10-08 07:36:00,49.2,48.7,30.19,NNE,15,0.0,1.0,98,0.00,,,0.00,VWS V14.00,2013-10-08 11:36:00,
2013-10-08 07:41:00,49.2,48.9,30.19,NNE,15,0.0,1.0,99,0.00,,,0.00,VWS V14.00,2013-10-08 11:41:00,
2013-10-08 07:46:00,49.4,49.1,30.19,West,271,0.0,2.0,99,0.00,,,0.00,VWS V14.00,2013-10-08 11:46:00,
2013-10-08 07:51:00,49.4,48.9,30.20,West,271,0.0,2.0,98,0.00,,,0.00,VWS V14.00,2013-10-08 11:51:00,
2013-10-08 07:56:00,49.5,49.2,30.20,West,271,0.0,2.0,99,0.00,,,0.00,VWS V14.00,2013-10-08 11:56:00,
2013-10-08 08:01:00,49.6,49.3,30.20,NNW,339,0.0,0.0,99,0.00,,,0.00,VWS V14.00,2013-10-08 12:01:00,
2013-10-08 08:06:00,49.8,49.5,30.20,NW,312,0.0,1.0,99,0.00,,,0.00,VWS V14.00,2013-10-08 12:06:00,
2013-10-08 08:11:00,49.9,49.4,30.21,NW,312,0.0,1.0,98,0.00,,,0.00,VWS V14.00,2013-10-08 12:11:00,
2013-10-08 08:16:00,50.1,49.6,30.21,NW,312,0.0,1.0,98,0.00,,,0.00,VWS V14.00,2013-10-08 12:16:00,
2013-10-08 08:21:00,50.2,49.7,30.21,NW,312,0.0,1.0,98,0.00,,,0.00,VWS V14.00,2013-10-08 12:21:00,
2013-10-08 08:26:00,50.4,49.6,30.21,NW,312,0.0,1.0,97,0.00,,,0.00,VWS V14.00,2013-10-08 12:26:00,
2013-10-08 08:31:00,50.6,50.1,30.22,NW,312,0.0,0.0,98,0.00,,,0.00,VWS V14.00,2013-10-08 12:31:00,
2013-10-08 08:36:00,50.8,50.0,30.21,NW,312,0.0,0.0,97,0.00,,,0.00,VWS V14.00,2013-10-08 12:36:00,
2013-10-08 08:41:00,51.0,49.9,30.22,NW,312,0.0,0.0,96,0.00,,,0.00,VWS V14.00,2013-10-08 12:41:00,
2013-10-08 08:46:00,51.4,50.3,30.22,NW,312,0.0,0.0,96,0.00,,,0.00,VWS V14.00,2013-10-08 12:46:00,
2013-10-08 08:51:00,51.9,50.5,30.22,NNW,347,0.0,3.0,95,0.00,,,0.00,VWS V14.00,2013-10-08 12:51:00,
2013-10-08 08:56:00,52.5,50.8,30.23,NE,48,0.0,3.0,94,0.00,,,0.00,VWS V14.00,2013-10-08 12:56:00,
2013-10-08 09:01:00,52.8,51.1,30.23,NNW,345,0.0,0.0,94,0.00,,,0.00,VWS V14.00,2013-10-08 13:01:00,
2013-10-08 09:06:00,53.2,51.2,30.23,NW,321,0.0,1.0,93,0.00,,,0.00,VWS V14.00,2013-10-08 13:06:00,
2013-10-08 09:11:00,53.6,51.0,30.23,NNE,24,0.0,1.0,91,0.00,,,0.00,VWS V14.00,2013-10-08 13:11:00,
2013-10-08 09:16:00,54.0,51.4,30.23,NNE,26,0.0,1.0,91,0.00,,,0.00,VWS V14.00,2013-10-08 13:16:00,
2013-10-08 09:21:00,54.3,51.1,30.23,NE,45,1.0,2.0,89,0.00,,,0.00,VWS V14.00,2013-10-08 13:21:00,
2013-10-08 09:26:00,54.5,51.3,30.24,North,5,0.0,3.0,89,0.00,,,0.00,VWS V14.00,2013-10-08 13:26:00,
2013-10-08 09:31:00,54.8,51.0,30.24,NNE,31,0.0,1.0,87,0.00,,,0.00,VWS V14.00,2013-10-08 13:31:00,
2013-10-08 09:36:00,55.1,51.6,30.24,WSW,250,1.0,3.0,88,0.00,,,0.00,VWS V14.00,2013-10-08 13:36:00,
2013-10-08 09:41:00,55.5,52.0,30.24,WNW,303,0.0,3.0,88,0.00,,,0.00,VWS V14.00,2013-10-08 13:41:00,
2013-10-08 09:46:00,56.0,52.2,30.24,NNW,340,0.0,4.0,87,0.00,,,0.00,VWS V14.00,2013-10-08 13:46:00,
2013-10-08 09:51:00,56.6,52.8,30.23,NNW,339,1.0,4.0,87,0.00,,,0.00,VWS V14.00,2013-10-08 13:51:00,
2013-10-08 09:56:00,57.1,53.0,30.24,NNE,26,0.0,4.0,86,0.00,,,0.00,VWS V14.00,2013-10-08 13:56:00,
2013-10-08 10:02:00,57.7,50.9,30.24,NNE,14,1.0,3.0,78,0.00,,,0.00,VWS V14.00,2013-10-08 14:02:00,
2013-10-08 10:07:00,58.2,53.1,30.24,North,355,0.0,3.0,83,0.00,,,0.00,VWS V14.00,2013-10-08 14:07:00,
2013-10-08 10:12:00,58.6,52.1,30.24,ENE,66,0.0,6.0,79,0.00,,,0.00,VWS V14.00,2013-10-08 14:12:00,
2013-10-08 10:17:00,58.8,52.7,30.24,NNE,29,0.0,6.0,80,0.00,,,0.00,VWS V14.00,2013-10-08 14:17:00,
2013-10-08 10:22:00,58.9,51.7,30.23,North,11,0.0,6.0,77,0.00,,,0.00,VWS V14.00,2013-10-08 14:22:00,
2013-10-08 10:27:00,59.2,52.0,30.24,NW,322,0.0,6.0,77,0.00,,,0.00,VWS V14.00,2013-10-08 14:27:00,
2013-10-08 10:32:00,59.6,52.0,30.24,West,263,3.0,3.0,76,0.00,,,0.00,VWS V14.00,2013-10-08 14:32:00,
2013-10-08 10:37:00,60.1,51.8,30.24,North,355,1.0,4.0,74,0.00,,,0.00,VWS V14.00,2013-10-08 14:37:00,
2013-10-08 10:42:00,60.6,51.9,30.24,NE,38,0.0,5.0,73,0.00,,,0.00,VWS V14.00,2013-10-08 14:42:00,
2013-10-08 10:47:00,60.9,51.8,30.25,NNE,22,1.0,5.0,72,0.00,,,0.00,VWS V14.00,2013-10-08 14:47:00,
2013-10-08 10:52:00,61.2,52.5,30.25,WNW,300,3.0,8.0,73,0.00,,,0.00,VWS V14.00,2013-10-08 14:52:00,
2013-10-08 10:57:00,61.7,52.6,30.25,West,276,1.0,8.0,72,0.00,,,0.00,VWS V14.00,2013-10-08 14:57:00,
2013-10-08 11:02:00,61.7,51.8,30.25,NNE,33,2.0,7.0,70,0.00,,,0.00,VWS V14.00,2013-10-08 15:02:00,
2013-10-08 11:07:00,61.9,52.4,30.25,ENE,78,3.0,7.0,71,0.00,,,0.00,VWS V14.00,2013-10-08 15:07:00,
2013-10-08 11:12:00,62.6,53.5,30.25,NNE,32,4.0,8.0,72,0.00,,,0.00,VWS V14.00,2013-10-08 15:12:00,
2013-10-08 11:17:00,63.0,52.3,30.25,NW,314,1.0,8.0,68,0.00,,,0.00,VWS V14.00,2013-10-08 15:17:00,
2013-10-08 11:22:00,63.0,51.9,30.25,NE,53,6.0,11.0,67,0.00,,,0.00,VWS V14.00,2013-10-08 15:22:00,
2013-10-08 11:27:00,62.6,51.5,30.25,North,5,2.0,11.0,67,0.00,,,0.00,VWS V14.00,2013-10-08 15:27:00,
2013-10-08 11:32:00,62.1,52.6,30.25,NNW,327,0.0,3.0,71,0.00,,,0.00,VWS V14.00,2013-10-08 15:32:00,
2013-10-08 11:37:00,61.9,52.8,30.25,NNW,347,1.0,7.0,72,0.00,,,0.00,VWS V14.00,2013-10-08 15:37:00,
2013-10-08 11:42:00,61.9,52.4,30.25,NNE,23,0.0,7.0,71,0.00,,,0.00,VWS V14.00,2013-10-08 15:42:00,
2013-10-08 11:47:00,62.0,52.5,30.25,NNW,348,1.0,7.0,71,0.00,,,0.00,VWS V14.00,2013-10-08 15:47:00,
2013-10-08 11:52:00,62.3,52.4,30.24,NE,46,0.0,8.0,70,0.00,,,0.00,VWS V14.00,2013-10-08 15:52:00,
2013-10-08 11:57:00,62.8,51.7,30.25,SSE,165,0.0,8.0,67,0.00,,,0.00,VWS V14.00,2013-10-08 15:57:00,
2013-10-08 12:02:00,62.7,52.4,30.24,North,360,0.0,4.0,69,0.00,,,0.00,VWS V14.00,2013-10-08 16:02:00,
2013-10-08 12:07:00,62.8,52.9,30.24,NNE,17,4.0,10.0,70,0.00,,,0.00,VWS V14.00,2013-10-08 16:07:00,
2013-10-08 12:12:00,63.1,53.2,30.24,WNW,296,1.0,10.0,70,0.00,,,0.00,VWS V14.00,2013-10-08 16:12:00,
2013-10-08 12:17:00,63.3,52.2,30.24,ENE,59,2.0,10.0,67,0.00,,,0.00,VWS V14.00,2013-10-08 16:17:00,
2013-10-08 12:22:00,63.4,53.5,30.24,North,355,2.0,10.0,70,0.00,,,0.00,VWS V14.00,2013-10-08 16:22:00,
2013-10-08 12:27:00,63.7,53.7,30.24,ESE,103,2.0,10.0,70,0.00,,,0.00,VWS V14.00,2013-10-08 16:27:00,
2013-10-08 12:32:00,63.6,53.3,30.24,NNW,338,0.0,2.0,69,0.00,,,0.00,VWS V14.00,2013-10-08 16:32:00,
2013-10-08 12:37:00,64.0,52.4,30.25,NNW,338,1.0,4.0,66,0.00,,,0.00,VWS V14.00,2013-10-08 16:37:00,
2013-10-08 12:42:00,64.0,52.8,30.25,SSE,157,1.0,7.0,67,0.00,,,0.00,VWS V14.00,2013-10-08 16:42:00,
2013-10-08 12:47:00,63.7,53.3,30.24,NE,55,2.0,7.0,69,0.00,,,0.00,VWS V14.00,2013-10-08 16:47:00,
2013-10-08 12:52:00,63.7,53.3,30.24,West,268,0.0,7.0,69,0.00,,,0.00,VWS V14.00,2013-10-08 16:52:00,
2013-10-08 12:57:00,64.0,52.8,30.24,NNE,15,3.0,8.0,67,0.00,,,0.00,VWS V14.00,2013-10-08 16:57:00,
2013-10-08 13:02:00,64.5,53.7,30.23,ENE,58,0.0,3.0,68,0.00,,,0.00,VWS V14.00,2013-10-08 17:02:00,
2013-10-08 13:07:00,64.9,54.1,30.23,NNW,346,0.0,7.0,68,0.00,,,0.00,VWS V14.00,2013-10-08 17:07:00,
2013-10-08 13:12:00,64.9,53.7,30.23,NE,36,2.0,9.0,67,0.00,,,0.00,VWS V14.00,2013-10-08 17:12:00,
2013-10-08 13:17:00,64.5,51.2,30.23,East,97,9.0,9.0,62,0.00,,,0.00,VWS V14.00,2013-10-08 17:17:00,
2013-10-08 13:22:00,64.1,51.7,30.23,ENE,74,5.0,9.0,64,0.00,,,0.00,VWS V14.00,2013-10-08 17:22:00,
2013-10-08 13:27:00,63.8,52.7,30.23,SE,130,0.0,9.0,67,0.00,,,0.00,VWS V14.00,2013-10-08 17:27:00,
2013-10-08 13:32:00,63.8,52.7,30.22,SE,131,3.0,8.0,67,0.00,,,0.00,VWS V14.00,2013-10-08 17:32:00,
2013-10-08 13:37:00,64.4,52.4,30.22,ENE,65,1.0,8.0,65,0.00,,,0.00,VWS V14.00,2013-10-08 17:37:00,
2013-10-08 13:42:00,65.0,52.5,30.22,SE,130,3.0,8.0,64,0.00,,,0.00,VWS V14.00,2013-10-08 17:42:00,
2013-10-08 13:47:00,65.0,52.1,30.22,North,5,4.0,8.0,63,0.00,,,0.00,VWS V14.00,2013-10-08 17:47:00,
2013-10-08 13:52:00,65.2,52.7,30.22,NW,313,0.0,8.0,64,0.00,,,0.00,VWS V14.00,2013-10-08 17:52:00,
2013-10-08 13:57:00,65.5,52.6,30.22,South,170,3.0,8.0,63,0.00,,,0.00,VWS V14.00,2013-10-08 17:57:00,
2013-10-08 14:02:00,65.3,52.8,30.23,ENE,61,5.0,5.0,64,0.00,,,0.00,VWS V14.00,2013-10-08 18:02:00,
2013-10-08 14:07:00,65.5,53.0,30.22,NE,38,1.0,6.0,64,0.00,,,0.00,VWS V14.00,2013-10-08 18:07:00,
2013-10-08 14:12:00,65.9,51.6,30.22,West,267,0.0,8.0,60,0.00,,,0.00,VWS V14.00,2013-10-08 18:12:00,
2013-10-08 14:17:00,66.0,52.2,30.21,NNW,346,3.0,8.0,61,0.00,,,0.00,VWS V14.00,2013-10-08 18:17:00,
2013-10-08 14:22:00,65.9,52.1,30.22,NNE,19,5.0,11.0,61,0.00,,,0.00,VWS V14.00,2013-10-08 18:22:00,
2013-10-08 14:27:00,66.2,52.4,30.22,ENE,78,0.0,11.0,61,0.00,,,0.00,VWS V14.00,2013-10-08 18:27:00,
2013-10-08 14:32:00,66.1,52.7,30.21,ENE,63,7.0,7.0,62,0.00,,,0.00,VWS V14.00,2013-10-08 18:32:00,
2013-10-08 14:37:00,65.7,52.3,30.21,NW,326,3.0,11.0,62,0.00,,,0.00,VWS V14.00,2013-10-08 18:37:00,
2013-10-08 14:42:00,65.7,51.9,30.21,North,9,5.0,11.0,61,0.00,,,0.00,VWS V14.00,2013-10-08 18:42:00,
2013-10-08 14:47:00,65.9,52.1,30.21,North,10,1.0,11.0,61,0.00,,,0.00,VWS V14.00,2013-10-08 18:47:00,
2013-10-08 14:52:00,65.8,50.2,30.21,North,9,0.0,16.0,57,0.00,,,0.00,VWS V14.00,2013-10-08 18:52:00,
2013-10-08 14:57:00,65.8,49.7,30.21,NNE,29,1.0,16.0,56,0.00,,,0.00,VWS V14.00,2013-10-08 18:57:00,
2013-10-08 15:02:00,65.9,50.2,30.21,NNE,28,4.0,5.0,57,0.00,,,0.00,VWS V14.00,2013-10-08 19:02:00,
2013-10-08 15:07:00,65.8,51.1,30.21,NNW,340,3.0,7.0,59,0.00,,,0.00,VWS V14.00,2013-10-08 19:07:00,
2013-10-08 15:12:00,65.7,50.5,30.21,NNW,346,1.0,7.0,58,0.00,,,0.00,VWS V14.00,2013-10-08 19:12:00,
2013-10-08 15:17:00,65.7,49.6,30.21,North,9,2.0,7.0,56,0.00,,,0.00,VWS V14.00,2013-10-08 19:17:00,
2013-10-08 15:22:00,65.9,50.7,30.21,ENE,64,8.0,8.0,58,0.00,,,0.00,VWS V14.00,2013-10-08 19:22:00,
2013-10-08 15:27:00,66.2,50.5,30.21,NW,321,2.0,8.0,57,0.00,,,0.00,VWS V14.00,2013-10-08 19:27:00,
2013-10-08 15:31:00,66.3,49.2,30.21,NNE,26,1.0,8.0,54,0.00,,,0.00,VWS V14.00,2013-10-08 19:31:00,
2013-10-08 15:36:00,66.2,51.0,30.21,NNW,335,0.0,10.0,58,0.00,,,0.00,VWS V14.00,2013-10-08 19:36:00,
2013-10-08 15:42:00,66.7,51.0,30.21,NNW,329,2.0,10.0,57,0.00,,,0.00,VWS V14.00,2013-10-08 19:42:00,
2013-10-08 15:46:00,66.9,51.2,30.21,WSW,253,2.0,10.0,57,0.00,,,0.00,VWS V14.00,2013-10-08 19:46:00,
2013-10-08 15:52:00,67.0,51.3,30.20,NNW,332,1.0,10.0,57,0.00,,,0.00,VWS V14.00,2013-10-08 19:52:00,
2013-10-08 15:57:00,66.6,49.5,30.21,ENE,78,1.0,10.0,54,0.00,,,0.00,VWS V14.00,2013-10-08 19:57:00,
2013-10-08 16:02:00,65.9,49.8,30.21,ESE,105,2.0,5.0,56,0.00,,,0.00,VWS V14.00,2013-10-08 20:02:00,
2013-10-08 16:07:00,65.6,50.9,30.21,ENE,74,2.0,5.0,59,0.00,,,0.00,VWS V14.00,2013-10-08 20:07:00,
2013-10-08 16:12:00,65.7,50.1,30.21,East,96,6.0,7.0,57,0.00,,,0.00,VWS V14.00,2013-10-08 20:12:00,
2013-10-08 16:17:00,66.1,50.0,30.21,NNE,17,2.0,9.0,56,0.00,,,0.00,VWS V14.00,2013-10-08 20:17:00,
2013-10-08 16:22:00,66.8,50.6,30.22,ENE,63,3.0,9.0,56,0.00,,,0.00,VWS V14.00,2013-10-08 20:22:00,
2013-10-08 16:27:00,66.7,50.5,30.21,ENE,78,0.0,9.0,56,0.00,,,0.00,VWS V14.00,2013-10-08 20:27:00,
2013-10-08 16:32:00,66.4,50.7,30.21,NE,53,1.0,4.0,57,0.00,,,0.00,VWS V14.00,2013-10-08 20:32:00,
2013-10-08 16:37:00,66.5,50.3,30.21,ENE,59,2.0,11.0,56,0.00,,,0.00,VWS V14.00,2013-10-08 20:37:00,
2013-10-08 16:42:00,66.6,50.0,30.21,East,86,0.0,11.0,55,0.00,,,0.00,VWS V14.00,2013-10-08 20:42:00,
2013-10-08 16:47:00,66.3,51.1,30.22,NNE,30,2.0,11.0,58,0.00,,,0.00,VWS V14.00,2013-10-08 20:47:00,
2013-10-08 16:52:00,65.7,49.6,30.22,NNE,30,3.0,11.0,56,0.00,,,0.00,VWS V14.00,2013-10-08 20:52:00,
2013-10-08 16:57:00,65.2,50.1,30.22,East,82,1.0,11.0,58,0.00,,,0.00,VWS V14.00,2013-10-08 20:57:00,
2013-10-08 17:02:00,64.9,50.7,30.22,North,360,1.0,6.0,60,0.00,,,0.00,VWS V14.00,2013-10-08 21:02:00,
2013-10-08 17:07:00,64.6,50.9,30.22,ENE,62,0.0,6.0,61,0.00,,,0.00,VWS V14.00,2013-10-08 21:07:00,
2013-10-08 17:12:00,64.3,51.9,30.22,NW,325,0.0,6.0,64,0.00,,,0.00,VWS V14.00,2013-10-08 21:12:00,
2013-10-08 17:17:00,63.9,51.5,30.22,North,10,2.0,6.0,64,0.00,,,0.00,VWS V14.00,2013-10-08 21:17:00,
2013-10-08 17:22:00,63.7,50.0,30.22,ENE,69,1.0,6.0,61,0.00,,,0.00,VWS V14.00,2013-10-08 21:22:00,
2013-10-08 17:27:00,63.6,52.5,30.22,ENE,59,0.0,6.0,67,0.00,,,0.00,VWS V14.00,2013-10-08 21:27:00,
2013-10-08 17:32:00,63.4,52.3,30.22,WNW,284,0.0,1.0,67,0.00,,,0.00,VWS V14.00,2013-10-08 21:32:00,
2013-10-08 17:37:00,63.3,50.9,30.22,ENE,72,0.0,2.0,64,0.00,,,0.00,VWS V14.00,2013-10-08 21:37:00,
2013-10-08 17:42:00,63.4,52.7,30.22,ENE,63,0.0,2.0,68,0.00,,,0.00,VWS V14.00,2013-10-08 21:42:00,
2013-10-08 17:47:00,63.7,52.5,30.23,East,82,0.0,3.0,67,0.00,,,0.00,VWS V14.00,2013-10-08 21:47:00,
2013-10-08 17:52:00,64.1,51.3,30.22,East,89,2.0,3.0,63,0.00,,,0.00,VWS V14.00,2013-10-08 21:52:00,
2013-10-08 17:57:00,64.1,52.1,30.23,ENE,73,0.0,5.0,65,0.00,,,0.00,VWS V14.00,2013-10-08 21:57:00,
2013-10-08 18:02:00,64.1,51.7,30.23,East,97,0.0,2.0,64,0.00,,,0.00,VWS V14.00,2013-10-08 22:02:00,
2013-10-08 18:07:00,63.8,51.8,30.23,East,100,0.0,2.0,65,0.00,,,0.00,VWS V14.00,2013-10-08 22:07:00,
2013-10-08 18:12:00,63.1,52.0,30.23,NE,35,0.0,4.0,67,0.00,,,0.00,VWS V14.00,2013-10-08 22:12:00,
2013-10-08 18:17:00,62.5,51.0,30.23,NNE,24,0.0,4.0,66,0.00,,,0.00,VWS V14.00,2013-10-08 22:17:00,
2013-10-08 18:22:00,62.0,51.7,30.23,NNE,24,0.0,4.0,69,0.00,,,0.00,VWS V14.00,2013-10-08 22:22:00,
2013-10-08 18:27:00,61.4,51.2,30.23,NE,46,0.0,4.0,69,0.00,,,0.00,VWS V14.00,2013-10-08 22:27:00,
2013-10-08 18:32:00,60.9,52.2,30.23,NNW,335,0.0,1.0,73,0.00,,,0.00,VWS V14.00,2013-10-08 22:32:00,
2013-10-08 18:37:00,60.4,51.3,30.24,NNW,335,0.0,1.0,72,0.00,,,0.00,VWS V14.00,2013-10-08 22:37:00,
2013-10-08 18:42:00,60.0,51.0,30.24,NE,43,0.0,2.0,72,0.00,,,0.00,VWS V14.00,2013-10-08 22:42:00,
2013-10-08 18:47:00,59.7,52.1,30.24,ENE,71,1.0,2.0,76,0.00,,,0.00,VWS V14.00,2013-10-08 22:47:00,
2013-10-08 18:52:00,59.3,51.0,30.23,East,86,0.0,2.0,74,0.00,,,0.00,VWS V14.00,2013-10-08 22:52:00,
2013-10-08 18:57:00,59.0,51.5,30.23,East,88,0.0,2.0,76,0.00,,,0.00,VWS V14.00,2013-10-08 22:57:00,
2013-10-08 19:02:00,58.6,50.3,30.24,East,88,0.0,1.0,74,0.00,,,0.00,VWS V14.00,2013-10-08 23:02:00,
2013-10-08 19:07:00,58.3,51.1,30.23,East,88,0.0,1.0,77,0.00,,,0.00,VWS V14.00,2013-10-08 23:07:00,
2013-10-08 19:12:00,58.0,50.5,30.24,East,88,0.0,1.0,76,0.00,,,0.00,VWS V14.00,2013-10-08 23:12:00,
2013-10-08 19:17:00,57.7,50.5,30.24,SE,135,0.0,1.0,77,0.00,,,0.00,VWS V14.00,2013-10-08 23:17:00,
2013-10-08 19:22:00,57.6,51.1,30.24,East,90,1.0,1.0,79,0.00,,,0.00,VWS V14.00,2013-10-08 23:22:00,
2013-10-08 19:27:00,57.3,51.2,30.24,ENE,74,0.0,3.0,80,0.00,,,0.00,VWS V14.00,2013-10-08 23:27:00,
2013-10-08 19:32:00,57.0,50.6,30.24,NNE,12,0.0,0.0,79,0.00,,,0.00,VWS V14.00,2013-10-08 23:32:00,
2013-10-08 19:37:00,56.9,50.1,30.24,ESE,115,0.0,3.0,78,0.00,,,0.00,VWS V14.00,2013-10-08 23:37:00,
2013-10-08 19:42:00,56.9,50.5,30.24,NE,49,0.0,3.0,79,0.00,,,0.00,VWS V14.00,2013-10-08 23:42:00,
2013-10-08 19:47:00,56.8,50.4,30.24,NE,51,0.0,3.0,79,0.00,,,0.00,VWS V14.00,2013-10-08 23:47:00,
2013-10-08 19:52:00,56.7,49.9,30.24,East,98,0.0,7.0,78,0.00,,,0.00,VWS V14.00,2013-10-08 23:52:00,
2013-10-08 19:57:00,56.7,50.3,30.25,East,96,1.0,7.0,79,0.00,,,0.00,VWS V14.00,2013-10-08 23:57:00,
2013-10-08 20:02:00,56.8,50.0,30.25,ENE,59,2.0,3.0,78,0.00,,,0.00,VWS V14.00,2013-10-09 00:02:00,
2013-10-08 20:07:00,56.8,49.7,30.25,East,82,0.0,3.0,77,0.00,,,0.00,VWS V14.00,2013-10-09 00:07:00,
2013-10-08 20:12:00,56.7,49.9,30.25,ESE,111,0.0,3.0,78,0.00,,,0.00,VWS V14.00,2013-10-09 00:12:00,
2013-10-08 20:17:00,56.7,49.9,30.25,North,9,1.0,3.0,78,0.00,,,0.00,VWS V14.00,2013-10-09 00:17:00,
2013-10-08 20:22:00,56.5,50.1,30.25,NE,44,0.0,3.0,79,0.00,,,0.00,VWS V14.00,2013-10-09 00:22:00,
2013-10-08 20:27:00,56.2,50.5,30.25,WNW,302,0.0,3.0,81,0.00,,,0.00,VWS V14.00,2013-10-09 00:27:00,
2013-10-08 20:32:00,55.9,49.8,30.25,NNW,330,0.0,0.0,80,0.00,,,0.00,VWS V14.00,2013-10-09 00:32:00,
2013-10-08 20:37:00,55.8,50.1,30.25,WNW,284,0.0,3.0,81,0.00,,,0.00,VWS V14.00,2013-10-09 00:37:00,
2013-10-08 20:42:00,55.6,50.2,30.25,NNE,13,0.0,3.0,82,0.00,,,0.00,VWS V14.00,2013-10-09 00:42:00,
2013-10-08 20:47:00,55.4,50.0,30.25,North,5,0.0,3.0,82,0.00,,,0.00,VWS V14.00,2013-10-09 00:47:00,
2013-10-08 20:52:00,55.3,50.2,30.25,SW,225,0.0,3.0,83,0.00,,,0.00,VWS V14.00,2013-10-09 00:52:00,
2013-10-08 20:57:00,55.2,49.8,30.25,SW,236,0.0,3.0,82,0.00,,,0.00,VWS V14.00,2013-10-09 00:57:00,
2013-10-08 21:02:00,55.1,49.7,30.26,SW,236,0.0,0.0,82,0.00,,,0.00,VWS V14.00,2013-10-09 01:02:00,
2013-10-08 21:07:00,54.9,49.8,30.26,SW,236,0.0,0.0,83,0.00,,,0.00,VWS V14.00,2013-10-09 01:07:00,
2013-10-08 21:12:00,54.8,49.7,30.26,SW,236,0.0,0.0,83,0.00,,,0.00,VWS V14.00,2013-10-09 01:12:00,
2013-10-08 21:17:00,54.8,50.1,30.26,SW,236,0.0,0.0,84,0.00,,,0.00,VWS V14.00,2013-10-09 01:17:00,
2013-10-08 21:22:00,54.7,50.0,30.26,SW,236,0.0,0.0,84,0.00,,,0.00,VWS V14.00,2013-10-09 01:22:00,
2013-10-08 21:27:00,54.6,50.2,30.26,SW,236,0.0,0.0,85,0.00,,,0.00,VWS V14.00,2013-10-09 01:27:00,
2013-10-08 21:32:00,54.5,50.1,30.26,SW,236,0.0,0.0,85,0.00,,,0.00,VWS V14.00,2013-10-09 01:32:00,
2013-10-08 21:37:00,54.3,50.2,30.26,SW,236,0.0,0.0,86,0.00,,,0.00,VWS V14.00,2013-10-09 01:37:00,
2013-10-08 21:42:00,54.2,50.4,30.27,SW,236,0.0,0.0,87,0.00,,,0.00,VWS V14.00,2013-10-09 01:42:00,
2013-10-08 21:47:00,54.0,50.2,30.27,SW,236,0.0,0.0,87,0.00,,,0.00,VWS V14.00,2013-10-09 01:47:00,
2013-10-08 21:52:00,53.9,50.1,30.27,SW,236,0.0,0.0,87,0.00,,,0.00,VWS V14.00,2013-10-09 01:52:00,
2013-10-08 21:57:00,53.8,50.3,30.27,SW,236,0.0,0.0,88,0.00,,,0.00,VWS V14.00,2013-10-09 01:57:00,
2013-10-08 22:02:00,53.6,50.1,30.27,SW,236,0.0,0.0,88,0.00,,,0.00,VWS V14.00,2013-10-09 02:02:00,
2013-10-08 22:07:00,53.4,50.5,30.27,SW,236,0.0,0.0,90,0.00,,,0.00,VWS V14.00,2013-10-09 02:07:00,
2013-10-08 22:12:00,53.3,50.5,30.27,SW,236,0.0,0.0,90,0.00,,,0.00,VWS V14.00,2013-10-09 02:12:00,
2013-10-08 22:17:00,53.2,50.7,30.27,SW,236,0.0,0.0,91,0.00,,,0.00,VWS V14.00,2013-10-09 02:17:00,
2013-10-08 22:22:00,53.0,50.5,30.27,SW,236,0.0,0.0,91,0.00,,,0.00,VWS V14.00,2013-10-09 02:22:00,
2013-10-08 22:27:00,52.8,50.5,30.27,SW,236,0.0,0.0,92,0.00,,,0.00,VWS V14.00,2013-10-09 02:27:00,
2013-10-08 22:32:00,52.7,50.7,30.27,SW,236,0.0,0.0,93,0.00,,,0.00,VWS V14.00,2013-10-09 02:32:00,
2013-10-08 22:37:00,52.6,50.6,30.27,SW,236,0.0,0.0,93,0.00,,,0.00,VWS V14.00,2013-10-09 02:37:00,
2013-10-08 22:42:00,52.4,50.2,30.27,SW,236,0.0,0.0,92,0.00,,,0.00,VWS V14.00,2013-10-09 02:42:00,
2013-10-08 22:47:00,52.3,50.3,30.27,SW,236,0.0,0.0,93,0.00,,,0.00,VWS V14.00,2013-10-09 02:47:00,
2013-10-08 22:52:00,52.2,50.5,30.27,SW,236,0.0,0.0,94,0.00,,,0.00,VWS V14.00,2013-10-09 02:52:00,
2013-10-08 22:57:00,52.1,50.4,30.27,SW,236,0.0,0.0,94,0.00,,,0.00,VWS V14.00,2013-10-09 02:57:00,
2013-10-08 23:02:00,52.0,50.3,30.27,SW,236,0.0,0.0,94,0.00,,,0.00,VWS V14.00,2013-10-09 03:02:00,
2013-10-08 23:07:00,51.9,50.2,30.27,SW,236,0.0,0.0,94,0.00,,,0.00,VWS V14.00,2013-10-09 03:07:00,
2013-10-08 23:12:00,51.8,50.4,30.27,SW,236,0.0,0.0,95,0.00,,,0.00,VWS V14.00,2013-10-09 03:12:00,
2013-10-08 23:17:00,51.7,50.3,30.27,SW,236,0.0,0.0,95,0.00,,,0.00,VWS V14.00,2013-10-09 03:17:00,
2013-10-08 23:22:00,51.7,50.6,30.27,SW,236,0.0,0.0,96,0.00,,,0.00,VWS V14.00,2013-10-09 03:22:00,
2013-10-08 23:27:00,51.6,50.2,30.27,SW,236,0.0,0.0,95,0.00,,,0.00,VWS V14.00,2013-10-09 03:27:00,
2013-10-08 23:32:00,51.5,50.1,30.27,SW,236,0.0,0.0,95,0.00,,,0.00,VWS V14.00,2013-10-09 03:32:00,
2013-10-08 23:37:00,51.5,50.1,30.27,SW,236,0.0,0.0,95,0.00,,,0.00,VWS V14.00,2013-10-09 03:37:00,
2013-10-08 23:42:00,51.4,50.0,30.26,SW,236,0.0,0.0,95,0.00,,,0.00,VWS V14.00,2013-10-09 03:42:00,
2013-10-08 23:47:00,51.4,50.0,30.26,SW,236,0.0,0.0,95,0.00,,,0.00,VWS V14.00,2013-10-09 03:47:00,
2013-10-08 23:52:00,51.4,50.0,30.26,SW,236,0.0,0.0,95,0.00,,,0.00,VWS V14.00,2013-10-09 03:52:00,
2013-10-08 23:57:00,51.4,50.0,30.26,SW,236,0.0,0.0,95,0.00,,,0.00,VWS V14.00,2013-10-09 03:57:00,